Time,TemperatureF,DewpointF,PressureIn,WindDirection,WindDirectionDegrees,WindSpeedMPH,WindSpeedGustMPH,Humidity,HourlyPrecipIn,Conditions,Clouds,dailyrainin,SoftwareType,DateUTC
2013-04-12 00:00:00,54.7,47.6,29.87,West,271,0.0,3.2,77,0.00,,,0.00,VWS V14.01,2013-04-12 07:00:00,
2013-04-12 00:10:00,54.7,47.6,29.87,West,271,0.0,0.0,77,0.00,,,0.00,VWS V14.01,2013-04-12 07:10:00,
2013-04-12 00:20:00,54.5,47.5,29.87,West,264,0.0,3.2,77,0.00,,,0.00,VWS V14.01,2013-04-12 07:20:00,
2013-04-12 00:30:00,54.5,47.5,29.87,WSW,252,0.0,3.2,77,0.00,,,0.00,VWS V14.01,2013-04-12 07:30:00,
2013-04-12 00:40:00,54.7,48.3,29.87,West,280,2.7,3.2,79,0.00,,,0.00,VWS V14.01,2013-04-12 07:40:00,
2013-04-12 00:50:00,54.5,48.1,29.87,SW,228,4.8,5.9,79,0.00,,CLR,0.00,VWS V14.01,2013-04-12 07:50:00,
2013-04-12 01:00:00,54.5,48.5,29.87,WSW,240,4.3,7.0,80,0.00,,CLR,0.00,VWS V14.01,2013-04-12 08:00:00,
2013-04-12 01:10:00,54.3,48.6,29.87,WNW,291,3.8,4.8,81,0.00,,CLR,0.00,VWS V14.01,2013-04-12 08:10:00,
2013-04-12 01:20:00,54.3,49.0,29.87,SW,233,0.0,4.8,82,0.00,,CLR,0.00,VWS V14.01,2013-04-12 08:20:00,
2013-04-12 01:30:00,54.3,49.0,29.87,West,262,0.0,4.8,82,0.00,,CLR,0.00,VWS V14.01,2013-04-12 08:30:00,
2013-04-12 01:40:00,54.3,49.3,29.87,WSW,246,0.0,3.2,83,0.00,,,0.00,VWS V14.01,2013-04-12 08:40:00,
2013-04-12 01:50:00,54.3,49.3,29.87,WSW,245,0.0,2.7,83,0.00,,,0.00,VWS V14.01,2013-04-12 08:50:00,
2013-04-12 02:00:00,54.1,49.1,29.87,West,270,0.0,2.7,83,0.00,,,0.00,VWS V14.01,2013-04-12 09:00:00,
2013-04-12 02:10:00,54.1,49.4,29.87,WNW,302,2.7,3.2,84,0.00,,,0.00,VWS V14.01,2013-04-12 09:10:00,
2013-04-12 02:20:00,54.0,49.2,29.87,WNW,300,0.0,2.7,84,0.00,,,0.00,VWS V14.01,2013-04-12 09:20:00,
2013-04-12 02:30:00,54.0,49.2,29.87,WNW,292,0.0,0.0,84,0.00,,,0.00,VWS V14.01,2013-04-12 09:30:00,
2013-04-12 02:40:00,54.0,49.2,29.87,West,281,0.0,2.7,84,0.00,,,0.00,VWS V14.01,2013-04-12 09:40:00,
2013-04-12 02:50:00,54.1,49.7,29.87,WNW,283,0.0,3.8,85,0.00,,,0.00,VWS V14.01,2013-04-12 09:50:00,
2013-04-12 03:00:00,54.1,50.0,29.87,West,278,0.0,4.8,86,0.00,,,0.00,VWS V14.01,2013-04-12 10:00:00,
2013-04-12 03:10:00,54.0,49.9,29.87,WNW,295,3.2,5.9,86,0.00,,,0.00,VWS V14.01,2013-04-12 10:10:00,
2013-04-12 03:20:00,53.6,49.2,29.87,WNW,300,0.0,4.3,85,0.00,,,0.00,VWS V14.01,2013-04-12 10:20:00,
2013-04-12 03:30:00,53.4,49.3,29.87,WNW,293,0.0,3.8,86,0.00,,,0.00,VWS V14.01,2013-04-12 10:30:00,
2013-04-12 03:40:00,53.2,49.2,29.87,WNW,286,0.0,4.8,86,0.00,,,0.00,VWS V14.01,2013-04-12 10:40:00,
2013-04-12 03:50:00,53.2,49.5,29.87,WNW,294,0.0,3.8,87,0.00,,,0.00,VWS V14.01,2013-04-12 10:50:00,
2013-04-12 04:00:00,53.2,49.8,29.87,West,270,0.0,0.0,88,0.00,,,0.00,VWS V14.01,2013-04-12 11:00:00,
2013-04-12 04:10:00,53.2,49.8,29.87,WSW,237,0.0,4.3,88,0.00,,,0.00,VWS V14.01,2013-04-12 11:10:00,
2013-04-12 04:20:00,53.2,49.8,29.87,WSW,238,4.8,4.8,88,0.00,,,0.00,VWS V14.01,2013-04-12 11:20:00,
2013-04-12 04:30:00,53.4,50.3,29.87,WNW,282,0.0,4.8,89,0.00,,,0.00,VWS V14.01,2013-04-12 11:30:00,
2013-04-12 04:40:00,53.8,50.6,29.87,WSW,255,0.0,3.8,89,0.00,,,0.00,VWS V14.01,2013-04-12 11:40:00,
2013-04-12 04:50:00,54.0,50.8,29.87,WSW,239,0.0,3.2,89,0.00,,,0.00,VWS V14.01,2013-04-12 11:50:00,
2013-04-12 05:00:00,54.3,51.5,29.87,SSW,207,0.0,3.8,90,0.00,,,0.00,VWS V14.01,2013-04-12 12:00:00,
2013-04-12 05:10:00,54.5,51.6,29.87,WNW,296,4.8,4.8,90,0.00,,,0.00,VWS V14.01,2013-04-12 12:10:00,
2013-04-12 05:20:00,54.5,51.6,29.87,NW,316,2.7,4.8,90,0.00,,,0.00,VWS V14.01,2013-04-12 12:20:00,
2013-04-12 05:30:00,54.7,51.5,29.87,NW,316,0.0,3.2,89,0.00,,,0.00,VWS V14.01,2013-04-12 12:30:00,
2013-04-12 05:40:00,54.9,51.7,29.87,West,277,0.0,3.8,89,0.00,,,0.00,VWS V14.01,2013-04-12 12:40:00,
2013-04-12 05:50:00,54.9,51.7,29.87,West,267,0.0,3.2,89,0.00,,,0.00,VWS V14.01,2013-04-12 12:50:00,
2013-04-12 06:00:00,55.0,51.9,29.87,WSW,248,0.0,3.2,89,0.00,,,0.00,VWS V14.01,2013-04-12 13:00:00,
2013-04-12 06:10:00,55.2,52.0,29.87,West,278,0.0,3.8,89,0.00,,,0.00,VWS V14.01,2013-04-12 13:10:00,
2013-04-12 06:20:00,55.2,52.0,29.87,WNW,292,0.0,2.7,89,0.00,,,0.00,VWS V14.01,2013-04-12 13:20:00,
2013-04-12 06:30:00,55.4,51.9,29.87,SSW,203,3.8,4.3,88,0.00,,,0.00,VWS V14.01,2013-04-12 13:30:00,
2013-04-12 06:40:00,55.6,51.8,29.87,WNW,297,0.0,3.8,87,0.00,,,0.00,VWS V14.01,2013-04-12 13:40:00,
2013-04-12 06:50:00,55.6,51.8,29.87,NW,311,0.0,3.8,87,0.00,,OVC015,0.00,VWS V14.01,2013-04-12 13:50:00,
2013-04-12 07:00:00,55.8,52.0,29.90,NE,55,0.0,0.0,87,0.00,,OVC015,0.00,VWS V14.01,2013-04-12 14:00:00,
2013-04-12 07:10:00,55.8,51.3,29.90,NE,56,0.0,0.0,85,0.00,,OVC015,0.00,VWS V14.01,2013-04-12 14:10:00,
2013-04-12 07:20:00,55.6,50.8,29.90,NNE,14,0.0,4.3,84,0.00,,OVC015,0.00,VWS V14.01,2013-04-12 14:20:00,
2013-04-12 07:30:00,55.2,50.5,29.90,NNE,13,0.0,4.8,84,0.00,,OVC015,0.00,VWS V14.01,2013-04-12 14:30:00,
2013-04-12 07:40:00,55.0,50.0,29.90,NNE,29,2.7,3.8,83,0.00,,OVC015,0.00,VWS V14.01,2013-04-12 14:40:00,
2013-04-12 07:50:00,55.0,50.3,29.90,NNE,32,3.2,4.8,84,0.00,,,0.00,VWS V14.01,2013-04-12 14:50:00,
2013-04-12 08:00:00,55.2,50.5,29.90,NNE,23,3.8,4.8,84,0.00,,,0.00,VWS V14.01,2013-04-12 15:00:00,
2013-04-12 08:10:00,55.6,50.8,29.90,ENE,67,4.3,4.8,84,0.00,,,0.00,VWS V14.01,2013-04-12 15:10:00,
2013-04-12 08:20:00,55.9,51.2,29.90,ENE,67,3.2,5.9,84,0.00,,,0.00,VWS V14.01,2013-04-12 15:20:00,
2013-04-12 08:30:00,56.1,51.4,29.90,NNE,26,0.0,4.8,84,0.00,,,0.00,VWS V14.01,2013-04-12 15:30:00,
2013-04-12 08:40:00,56.3,51.2,29.90,NE,46,0.0,3.2,83,0.00,,,0.00,VWS V14.01,2013-04-12 15:40:00,
2013-04-12 08:50:00,56.8,51.7,29.90,SSE,153,0.0,2.7,83,0.00,,,0.00,VWS V14.01,2013-04-12 15:50:00,
2013-04-12 09:00:00,57.4,51.6,29.90,SSE,155,0.0,3.8,81,0.00,,,0.00,VWS V14.01,2013-04-12 16:00:00,
2013-04-12 09:10:00,57.9,51.8,29.90,West,260,0.0,5.9,80,0.00,,,0.00,VWS V14.01,2013-04-12 16:10:00,
2013-04-12 09:20:00,58.3,51.8,29.90,South,181,0.0,4.8,79,0.00,,,0.00,VWS V14.01,2013-04-12 16:20:00,
2013-04-12 09:30:00,58.8,52.0,29.90,NW,320,0.0,6.4,78,0.00,,,0.00,VWS V14.01,2013-04-12 16:30:00,
2013-04-12 09:40:00,59.0,51.5,29.90,SW,233,0.0,7.0,76,0.00,,,0.00,VWS V14.01,2013-04-12 16:40:00,
2013-04-12 09:50:00,59.2,51.3,29.90,West,267,0.0,6.4,75,0.00,,,0.00,VWS V14.01,2013-04-12 16:50:00,
2013-04-12 10:00:00,59.5,51.6,29.93,SSE,163,3.8,4.8,75,0.00,,,0.00,VWS V14.01,2013-04-12 17:00:00,
2013-04-12 10:10:00,59.9,51.6,29.93,SSW,210,4.3,8.6,74,0.00,,,0.00,VWS V14.01,2013-04-12 17:10:00,
2013-04-12 10:20:00,60.1,51.8,29.93,South,185,7.5,7.5,74,0.00,,,0.00,VWS V14.01,2013-04-12 17:20:00,
2013-04-12 10:30:00,60.3,51.6,29.93,South,177,3.8,9.1,73,0.00,,,0.00,VWS V14.01,2013-04-12 17:30:00,
2013-04-12 10:40:00,60.8,51.7,29.93,SSE,161,4.8,9.1,72,0.00,,,0.00,VWS V14.01,2013-04-12 17:40:00,
2013-04-12 10:50:00,60.8,51.3,29.93,SSW,211,3.8,9.7,71,0.00,,,0.00,VWS V14.01,2013-04-12 17:50:00,
2013-04-12 11:00:00,61.0,51.5,29.93,SSW,192,9.7,10.5,71,0.00,,,0.00,VWS V14.01,2013-04-12 18:00:00,
2013-04-12 11:10:00,61.0,51.5,29.93,WSW,242,4.8,11.5,71,0.00,,,0.00,VWS V14.01,2013-04-12 18:10:00,
2013-04-12 11:20:00,61.7,52.2,29.93,NW,314,7.5,9.9,71,0.00,,,0.00,VWS V14.01,2013-04-12 18:20:00,
2013-04-12 11:30:00,62.4,52.1,29.93,West,262,7.5,10.5,69,0.00,,,0.00,VWS V14.01,2013-04-12 18:30:00,
2013-04-12 12:30:00,64.4,52.0,29.90,SW,224,7.5,10.5,64,0.00,,OVC015,0.00,VWS V14.01,2013-04-12 19:30:00,
2013-04-12 12:40:00,64.6,52.1,29.90,South,186,10.5,12.1,64,0.00,,BKN015,0.00,VWS V14.01,2013-04-12 19:40:00,
2013-04-12 12:50:00,64.8,52.3,29.90,SW,232,6.4,10.5,64,0.00,,BKN015,0.00,VWS V14.01,2013-04-12 19:50:00,
2013-04-12 13:00:00,65.1,52.2,29.90,West,265,8.6,8.6,63,0.00,,BKN015,0.00,VWS V14.01,2013-04-12 20:00:00,
2013-04-12 13:10:00,65.1,52.2,29.90,SW,227,7.0,10.5,63,0.00,,BKN015,0.00,VWS V14.01,2013-04-12 20:10:00,
2013-04-12 13:20:00,65.8,52.5,29.90,SSW,213,9.1,9.9,62,0.00,,BKN015,0.00,VWS V14.01,2013-04-12 20:20:00,
2013-04-12 13:30:00,66.2,51.9,29.90,SW,226,3.2,9.9,60,0.00,,BKN015,0.00,VWS V14.01,2013-04-12 20:30:00,
2013-04-12 13:40:00,66.4,51.6,29.90,WSW,247,6.4,10.5,59,0.00,,BKN015,0.00,VWS V14.01,2013-04-12 20:40:00,
2013-04-12 13:50:00,66.7,52.0,29.90,WSW,240,7.5,12.1,59,0.00,,SCT015,0.00,VWS V14.01,2013-04-12 20:50:00,
2013-04-12 14:00:00,66.6,51.3,29.90,SW,223,3.8,12.6,58,0.00,,SCT015,0.00,VWS V14.01,2013-04-12 21:00:00,
2013-04-12 14:10:00,66.7,51.5,29.87,SSE,166,5.9,9.9,58,0.00,,SCT015,0.00,VWS V14.01,2013-04-12 21:10:00,
2013-04-12 14:20:00,66.9,51.7,29.87,SSE,160,4.3,10.5,58,0.00,,SCT015,0.00,VWS V14.01,2013-04-12 21:20:00,
2013-04-12 14:30:00,66.6,51.3,29.87,SSW,195,4.3,10.5,58,0.00,,SCT015,0.00,VWS V14.01,2013-04-12 21:30:00,
2013-04-12 14:40:00,66.6,51.3,29.87,South,188,3.8,12.1,58,0.00,,SCT015,0.00,VWS V14.01,2013-04-12 21:40:00,
2013-04-12 14:50:00,66.6,51.8,29.87,SE,144,7.0,11.5,59,0.00,,CLR,0.00,VWS V14.01,2013-04-12 21:50:00,
2013-04-12 15:00:00,66.9,51.7,29.87,SSW,213,6.4,12.6,58,0.00,,CLR,0.00,VWS V14.01,2013-04-12 22:00:00,
2013-04-12 15:10:00,66.4,51.2,29.87,SW,214,3.8,13.2,58,0.00,,CLR,0.00,VWS V14.01,2013-04-12 22:10:00,
2013-04-12 15:20:00,65.8,51.6,29.87,SE,131,4.8,13.2,60,0.00,,CLR,0.00,VWS V14.01,2013-04-12 22:20:00,
2013-04-12 15:30:00,66.2,51.5,29.87,SSE,167,10.5,10.5,59,0.00,,CLR,0.00,VWS V14.01,2013-04-12 22:30:00,
2013-04-12 15:40:00,65.7,51.4,29.87,WSW,255,12.6,14.2,60,0.00,,FEW014,0.00,VWS V14.01,2013-04-12 22:40:00,
2013-04-12 15:50:00,65.5,51.7,29.87,West,261,4.3,14.8,61,0.00,,FEW014,0.00,VWS V14.01,2013-04-12 22:50:00,
2013-04-12 16:00:00,65.1,51.3,29.87,SSW,203,7.5,12.6,61,0.00,,FEW014,0.00,VWS V14.01,2013-04-12 23:00:00,
2013-04-12 16:10:00,65.3,52.0,29.87,WSW,241,9.9,11.5,62,0.00,,FEW014,0.00,VWS V14.01,2013-04-12 23:10:00,
2013-04-12 16:20:00,65.1,51.8,29.87,South,190,9.1,11.5,62,0.00,,FEW014,0.00,VWS V14.01,2013-04-12 23:20:00,
2013-04-12 16:30:00,64.8,51.5,29.87,SSW,202,6.4,12.1,62,0.00,,FEW014,0.00,VWS V14.01,2013-04-12 23:30:00,
2013-04-12 16:40:00,64.6,51.7,29.87,SSW,202,3.8,12.1,63,0.00,,CLR,0.00,VWS V14.01,2013-04-12 23:40:00,
2013-04-12 16:50:00,64.8,51.9,29.87,WSW,257,7.5,13.2,63,0.00,,CLR,0.00,VWS V14.01,2013-04-12 23:50:00,
2013-04-12 17:00:00,64.0,51.2,29.84,SW,221,4.3,12.6,63,0.00,,CLR,0.00,VWS V14.01,2013-04-13 00:00:00,
2013-04-12 17:10:00,63.9,51.0,29.84,South,172,4.8,12.6,63,0.00,,CLR,0.00,VWS V14.01,2013-04-13 00:10:00,
2013-04-12 17:20:00,63.9,51.5,29.84,SSW,207,5.9,12.1,64,0.00,,CLR,0.00,VWS V14.01,2013-04-13 00:20:00,
2013-04-12 17:30:00,63.9,51.5,29.84,SW,219,7.0,11.5,64,0.00,,CLR,0.00,VWS V14.01,2013-04-13 00:30:00,
2013-04-12 17:40:00,63.5,51.1,29.84,SW,229,4.3,9.9,64,0.00,,CLR,0.00,VWS V14.01,2013-04-13 00:40:00,
2013-04-12 17:50:00,63.7,51.3,29.84,SW,215,4.8,7.5,64,0.00,,CLR,0.00,VWS V14.01,2013-04-13 00:50:00,
2013-04-12 18:00:00,63.1,50.8,29.84,SSW,206,9.1,12.6,64,0.00,,CLR,0.00,VWS V14.01,2013-04-13 01:00:00,
2013-04-12 18:10:00,62.2,50.8,29.84,West,268,3.8,9.9,66,0.00,,CLR,0.00,VWS V14.01,2013-04-13 01:10:00,
2013-04-12 18:20:00,61.5,50.9,29.84,WSW,241,7.0,10.5,68,0.00,,CLR,0.00,VWS V14.01,2013-04-13 01:20:00,
2013-04-12 18:30:00,60.6,50.8,29.84,South,172,4.8,7.5,70,0.00,,CLR,0.00,VWS V14.01,2013-04-13 01:30:00,
2013-04-12 18:50:00,59.4,50.3,29.87,SW,223,7.5,9.1,72,0.00,,CLR,0.00,VWS V14.01,2013-04-13 01:50:00,
2013-04-12 19:00:00,59.0,50.4,29.84,SSW,197,4.8,9.7,73,0.00,,FEW010,0.00,VWS V14.01,2013-04-13 02:00:00,
2013-04-12 19:10:00,58.6,50.4,29.87,South,185,4.3,5.9,74,0.00,,FEW010,0.00,VWS V14.01,2013-04-13 02:10:00,
2013-04-12 19:20:00,58.3,50.4,29.87,SSE,151,3.2,6.4,75,0.00,,FEW010,0.00,VWS V14.01,2013-04-13 02:20:00,
2013-04-12 19:30:00,57.9,50.4,29.87,SSW,204,3.8,4.8,76,0.00,,FEW010,0.00,VWS V14.01,2013-04-13 02:30:00,
2013-04-12 19:40:00,57.4,50.6,29.87,WSW,247,2.7,5.4,78,0.00,,,0.00,VWS V14.01,2013-04-13 02:40:00,
2013-04-12 19:50:00,57.2,50.8,29.87,South,174,3.2,4.3,79,0.00,,,0.00,VWS V14.01,2013-04-13 02:50:00,
2013-04-12 20:00:00,57.0,51.3,29.87,South,175,3.2,4.8,81,0.00,,,0.00,VWS V14.01,2013-04-13 03:00:00,
2013-04-12 20:10:00,56.7,50.9,29.87,South,169,3.8,4.8,81,0.00,,,0.00,VWS V14.01,2013-04-13 03:10:00,
2013-04-12 20:20:00,56.3,50.9,29.87,SSW,213,0.0,4.8,82,0.00,,,0.00,VWS V14.01,2013-04-13 03:20:00,
2013-04-12 20:30:00,56.1,51.0,29.87,SSW,203,0.0,3.2,83,0.00,,,0.00,VWS V14.01,2013-04-13 03:30:00,
2013-04-12 20:40:00,55.9,50.9,29.87,South,170,0.0,5.9,83,0.00,,,0.00,VWS V14.01,2013-04-13 03:40:00,
2013-04-12 20:50:00,55.9,51.2,29.87,South,186,3.2,4.3,84,0.00,,,0.00,VWS V14.01,2013-04-13 03:50:00,
2013-04-12 21:00:00,55.8,51.0,29.87,South,178,0.0,5.4,84,0.00,,,0.00,VWS V14.01,2013-04-13 04:00:00,
2013-04-12 21:10:00,55.6,50.8,29.90,SSE,163,0.0,3.8,84,0.00,,,0.00,VWS V14.01,2013-04-13 04:10:00,
2013-04-12 21:20:00,55.6,51.2,29.90,SSE,164,0.0,0.0,85,0.00,,,0.00,VWS V14.01,2013-04-13 04:20:00,
2013-04-12 21:30:00,55.6,51.2,29.90,SSE,164,0.0,2.7,85,0.00,,,0.00,VWS V14.01,2013-04-13 04:30:00,
2013-04-12 21:40:00,55.4,51.0,29.90,NNE,12,0.0,3.2,85,0.00,,,0.00,VWS V14.01,2013-04-13 04:40:00,
2013-04-12 21:50:00,55.0,50.3,29.90,NNE,12,0.0,3.8,84,0.00,,,0.00,VWS V14.01,2013-04-13 04:50:00,
2013-04-12 22:00:00,54.9,50.1,29.90,NNE,12,0.0,0.0,84,0.00,,,0.00,VWS V14.01,2013-04-13 05:00:00,
2013-04-12 22:10:00,54.5,49.8,29.90,NNE,12,3.2,3.2,84,0.00,,,0.00,VWS V14.01,2013-04-13 05:10:00,
2013-04-12 22:20:00,54.5,49.8,29.90,NNE,17,2.7,3.2,84,0.00,,,0.00,VWS V14.01,2013-04-13 05:20:00,
2013-04-12 22:30:00,54.3,49.6,29.90,NNE,18,0.0,4.3,84,0.00,,,0.00,VWS V14.01,2013-04-13 05:30:00,
2013-04-12 22:40:00,54.1,49.4,29.90,NNE,18,0.0,3.2,84,0.00,,,0.00,VWS V14.01,2013-04-13 05:40:00,
2013-04-12 22:50:00,54.3,49.9,29.90,ENE,58,3.8,6.4,85,0.00,,,0.00,VWS V14.01,2013-04-13 05:50:00,
2013-04-12 23:00:00,54.3,50.2,29.90,East,91,3.8,4.8,86,0.00,,,0.00,VWS V14.01,2013-04-13 06:00:00,
2013-04-12 23:10:00,54.5,51.0,29.90,ENE,72,3.2,4.8,88,0.00,,,0.00,VWS V14.01,2013-04-13 06:10:00,
2013-04-12 23:20:00,54.5,51.3,29.90,ENE,63,3.2,5.9,89,0.00,,,0.00,VWS V14.01,2013-04-13 06:20:00,
2013-04-12 23:30:00,54.5,51.3,29.93,ESE,107,4.3,4.8,89,0.00,,,0.00,VWS V14.01,2013-04-13 06:30:00,